WetterOnline ( https://www.wetteronline.de )

Wetter aktuell Mojanovici

Aktuelles Wetter: Podgorica-Golubovci aerodrom (33m)

6-stündlich | Neueste Meldungen
Ortszeit Temperatur Wetter
Mo, 15.04. 20:00 20.8° C leicht bewölkt
Mo, 15.04. 14:00 25.5° C leicht bewölkt
Mo, 15.04. 8:00 17.6° C wolkenlos
Mo, 15.04. 2:00 15.8° C wolkenlos
So, 14.04. 20:00 21.7° C wolkenlos
So, 14.04. 14:00 28.0° C wolkenlos
So, 14.04. 8:00 19.6° C wolkenlos
So, 14.04. 2:00 17.2° C wolkenlos
Ortszeit Temperatur Wetter
Mo, 15.04. 23:00 19.4° C leicht bewölkt
Mo, 15.04. 22:00 19.6° C leicht bewölkt
Mo, 15.04. 21:00 20.2° C leicht bewölkt
Mo, 15.04. 20:00 20.8° C leicht bewölkt
Ortszeit Relative Feuchte Sichtweite
Mo, 15.04. 20:00 60% 10 km
Mo, 15.04. 14:00 44% 10 km
Mo, 15.04. 8:00 67% 10 km
Mo, 15.04. 2:00 76% 10 km
So, 14.04. 20:00 56% 10 km
So, 14.04. 14:00 35% 10 km
So, 14.04. 8:00 54% 10 km
So, 14.04. 2:00 65% 10 km
Ortszeit Relative Feuchte Sichtweite
Mo, 15.04. 23:00 56% 10 km
Mo, 15.04. 22:00 54% 10 km
Mo, 15.04. 21:00 57% 10 km
Mo, 15.04. 20:00 60% 10 km
Ortszeit Niederschlagsmenge Niederschlagsart
Mo, 15.04. 20:00 0.0 l/m2 in 12 Std. -
Mo, 15.04. 14:00 0.0 l/m2 in 6 Std. -
Mo, 15.04. 8:00 0.0 l/m2 in 12 Std. -
Mo, 15.04. 2:00 0.1 l/m2 in 6 Std. -
So, 14.04. 20:00 0.0 l/m2 in 12 Std. -
So, 14.04. 14:00 0.0 l/m2 in 6 Std. -
So, 14.04. 8:00 0.0 l/m2 in 12 Std. -
So, 14.04. 2:00 keine Meldung -
Ortszeit Niederschlagsmenge Niederschlagsart
Mo, 15.04. 23:00 keine Meldung -
Mo, 15.04. 22:00 keine Meldung -
Mo, 15.04. 21:00 keine Meldung -
Mo, 15.04. 20:00 keine Meldung -
Ortszeit Stärke Spitze Richtung
km/h Bft. km/h Grad Sektor
Mo, 15.04. 20:00 4 1 - 200° S
Mo, 15.04. 14:00 11 2 - 170° S
Mo, 15.04. 8:00 7 2 - 10° N
Mo, 15.04. 2:00 0 0 - - -
So, 14.04. 20:00 11 2 - 160° S
So, 14.04. 14:00 7 2 - 200° S
So, 14.04. 8:00 0 0 - - -
So, 14.04. 2:00 4 1 - 20° N
Ortszeit Stärke Spitze Richtung
km/h Bft. km/h Grad Sektor
Mo, 15.04. 23:00 4 1 - 210° SW
Mo, 15.04. 22:00 7 2 - 150° SO
Mo, 15.04. 21:00 4 1 - 180° S
Mo, 15.04. 20:00 4 1 - 200° S
Ortszeit Untergrenze Bedeckung Gattung
total tief tief mittel hoch
Mo, 15.04. 20:00 3300 m 6/8 2/8 - Ac Ci
Mo, 15.04. 14:00 1200 m 5/8 1/8 - - Ci
Mo, 15.04. 8:00 - 0/8 0/8 - - -
Mo, 15.04. 2:00 - 0/8 0/8 - - -
So, 14.04. 20:00 - 0/8 0/8 - - -
So, 14.04. 14:00 - 0/8 0/8 - - -
So, 14.04. 8:00 - 0/8 0/8 - - -
So, 14.04. 2:00 3300 m 0/8 0/8 - Ac -
Ortszeit Bedeckungsgrad in Achtel und Wolkenuntergrenze
Mo, 15.04. 23:00 4(3300m) 7(2700m)
Mo, 15.04. 22:00 4(3300m)
Mo, 15.04. 21:00 4(3300m)
Mo, 15.04. 20:00 2(3300m)
Ortszeit Luftdruck NN (hPa) Tendenz (hPa in 3 Std.)
Mo, 15.04. 20:00 1015 - 0,4
Mo, 15.04. 14:00 1018 - 1,6
Mo, 15.04. 8:00 1020 + 0,1
Mo, 15.04. 2:00 1021 - 0,3
So, 14.04. 20:00 1021 + 0,4
So, 14.04. 14:00 1022 - 2,0
So, 14.04. 8:00 1025 + 0,7
So, 14.04. 2:00 1024 0,0
Ortszeit Luftdruck NN (hPa) Tendenz (hPa in 3 Std.)
Mo, 15.04. 23:00 1015 - 0,1
Mo, 15.04. 22:00 1015 + 0,8
Mo, 15.04. 21:00 1016 + 0,4
Mo, 15.04. 20:00 1015 - 0,4
Ortszeit Schneehöhe (cm)
Mo, 15.04. 20:00 -
Mo, 15.04. 14:00 -
Mo, 15.04. 8:00 0
Mo, 15.04. 2:00 -
So, 14.04. 20:00 -
So, 14.04. 14:00 -
So, 14.04. 8:00 0
So, 14.04. 2:00 -
Ortszeit Schneehöhe (cm)
Mo, 15.04. 23:00 -
Mo, 15.04. 22:00 -
Mo, 15.04. 21:00 -
Mo, 15.04. 20:00 -
Link zu dieser Seite / Seite empfehlen

Das Wetter in ...